Location: Knowlton
(51.2333°N, 1.2667°E)
Time: 09:39:11
(UTC+00:00)

Cosmos 1741 Rocket - Pass Details

Date: 18 April 2021
Orbit: 762 x 781 km, 74.0° (Epoch: 16 May)

Event Time Altitude Azimuth Distance (km) Brightness Sun altitude
Exits shadow 22:48:41 80° 111° (ESE) 795 3.9 -26.0°
Drops below altitude 10° 22:53:59 10° 27° (NNE) 2,331 7.1 -26.2°
Sets 22:56:22 0° 26° (NNE) 3,260 7.9 -26.4°
